Theta_e
321 321 322 320 318 318 320 324 327 328 328 328 328 327 326 325 325 324 324 322 320 319 319 319 319 320 320 321 321 320 321 322 322 323 324 323 321 319 319 317 317 316 315 315 317 318 318 317 318 317 322 326 324 322 317 319 321 320 327 330 326 325 324 324 323 320 321 322 319 315 316 325 326 317 314 316 324 331 328 331 336 331 330 330 327 327 332 334
319 320 321 321 320 318 317 318 324 327 328 328 328 327 326 325 325 324 324 323 322 320 319 319 319 319 320 320 320 320 319 319 321 322 323 323 323 321 320 318 319 319 316 316 316 317 319 320 317 318 328 330 324 325 324 320 318 325 328 325 328 330 324 322 322 319 317 318 319 317 315 320 323 317 315 317 324 330 327 329 336 338 334 332 329 330 333 334
315 318 320 320 321 320 318 316 318 323 327 328 327 327 326 325 324 324 324 322 321 321 320 319 319 319 320 320 320 320 320 321 322 323 322 322 323 322 320 318 316 318 317 317 316 316 319 320 318 322 330 332 328 327 329 324 319 324 324 322 332 331 324 321 322 320 316 316 317 317 315 317 318 316 316 319 326 329 328 326 332 338 339 339 332 329 332 333
314 316 318 319 320 320 320 318 316 318 323 327 328 327 327 325 324 324 323 322 322 321 320 320 320 320 321 321 322 322 322 324 325 323 321 321 323 322 320 318 315 315 316 317 318 317 317 317 319 326 332 333 330 327 330 329 321 319 318 323 328 322 321 322 321 320 316 314 316 319 317 316 317 315 316 321 325 327 327 325 326 332 340 341 333 329 332 332
314 315 316 317 319 320 320 320 318 316 317 322 327 327 326 326 325 324 324 323 322 322 322 322 322 322 323 323 324 323 323 327 327 323 322 321 323 322 318 318 316 314 315 317 318 318 318 317 320 327 332 332 328 327 330 328 319 317 317 321 322 316 318 319 318 316 314 313 315 319 318 316 316 314 317 322 321 321 323 323 323 325 336 340 332 329 331 331
314 314 315 316 317 319 320 320 319 318 316 317 323 327 327 326 325 324 324 323 323 323 323 323 324 323 323 323 324 323 323 328 326 322 324 322 324 321 315 315 315 314 315 317 318 319 319 319 323 326 328 329 327 329 330 324 317 319 318 320 322 317 316 317 313 313 314 314 316 319 316 315 316 315 318 320 319 319 317 319 323 327 330 333 330 330 331 332
313 314 315 316 316 317 318 320 320 319 317 315 318 323 327 326 325 325 324 323 323 323 323 323 323 322 323 323 324 324 324 325 321 321 324 323 325 322 315 314 314 314 315 317 318 320 321 321 326 324 323 326 325 326 325 321 317 318 319 319 320 317 317 317 312 312 313 314 315 316 313 315 318 318 316 317 319 317 318 320 322 325 327 329 330 330 331 332
311 314 315 315 316 316 317 319 319 319 319 317 316 318 325 327 325 325 324 323 323 323 322 322 322 322 323 324 325 326 325 324 320 321 324 324 325 321 315 313 313 314 315 317 318 320 320 321 324 323 323 326 323 320 317 320 321 317 317 316 315 316 317 317 314 313 313 314 314 313 314 317 318 316 314 318 317 314 323 327 326 327 328 330 331 331 331 331
308 311 313 315 315 316 316 316 318 319 319 319 318 316 320 326 325 325 324 323 323 323 322 322 323 323 324 324 324 326 325 323 321 321 324 325 323 319 316 314 313 314 315 316 317 319 320 320 323 324 326 325 322 318 316 321 323 317 314 314 314 316 318 316 315 314 313 313 312 313 316 318 315 312 314 318 315 320 333 337 334 332 333 332 331 331 331 330
307 308 310 312 314 315 315 315 316 318 319 319 319 316 317 322 325 325 324 323 322 322 323 324 324 323 324 324 324 326 324 321 322 321 324 325 323 321 318 315 314 314 314 315 315 317 319 320 320 323 325 324 323 322 322 322 319 315 313 314 315 316 318 316 314 315 313 311 312 314 316 316 311 311 317 316 314 325 343 343 333 333 335 332 331 331 330 330
309 308 308 308 311 313 314 315 315 316 318 318 319 318 315 318 324 325 324 324 322 322 324 324 324 324 324 324 325 325 323 321 322 321 324 326 325 323 319 315 314 314 315 315 315 316 317 318 316 319 322 323 322 323 324 322 318 316 313 315 318 317 316 316 316 315 313 312 313 313 314 314 309 312 316 315 316 321 339 345 333 333 334 330 331 331 329 329
310 309 309 308 308 311 313 314 314 315 316 317 318 318 316 316 321 325 324 323 323 322 323 323 323 323 323 324 325 324 322 322 323 322 324 325 326 324 320 318 316 314 315 315 315 315 316 316 316 321 322 321 321 322 324 324 322 320 317 317 320 318 316 317 316 314 313 312 313 312 314 314 311 314 315 317 320 317 328 342 335 331 332 330 331 330 329 329
310 309 310 310 308 308 311 313 314 314 315 316 317 318 317 315 318 324 325 323 323 323 323 323 323 322 324 325 324 323 323 322 323 323 325 325 325 322 318 319 317 315 315 315 315 315 316 316 317 322 320 321 323 321 323 323 321 320 319 319 319 320 318 316 314 313 312 312 313 313 315 318 316 315 313 318 322 318 324 337 334 330 331 329 330 329 330 328
311 310 310 310 309 308 309 311 313 314 314 315 316 317 317 315 315 320 325 324 323 323 323 323 323 323 325 325 323 323 323 322 323 324 324 324 322 319 316 315 316 316 316 315 315 316 316 316 317 318 317 320 320 319 323 324 324 323 319 319 320 322 322 317 314 314 314 312 313 313 314 318 318 316 313 316 321 320 322 330 331 331 330 329 330 329 330 329
310 310 310 310 309 308 308 309 311 313 314 315 315 315 316 316 315 317 324 325 323 324 323 323 323 323 325 325 322 322 323 322 323 323 324 323 321 318 317 316 316 318 318 315 315 315 316 315 316 317 316 315 316 321 326 325 328 327 323 324 323 321 324 320 314 313 314 313 311 312 316 316 315 316 314 316 321 322 319 322 326 330 330 329 329 329 330 329
310 310 310 310 310 309 309 308 309 311 313 314 315 315 315 316 315 315 321 324 323 324 324 323 323 323 326 326 322 322 323 323 323 322 322 322 322 319 317 317 316 318 320 317 315 315 314 315 316 317 316 315 318 324 326 324 324 323 323 328 325 320 320 319 315 312 313 314 311 312 316 317 316 315 311 311 319 323 320 319 321 325 329 328 329 329 329 329
309 310 310 310 310 309 309 309 309 309 311 313 314 315 315 315 315 314 317 323 325 324 324 323 322 323 325 322 322 323 323 323 322 321 320 320 321 319 316 315 314 316 318 316 314 313 313 314 314 316 318 320 322 323 326 326 325 324 323 325 325 321 318 319 321 316 311 313 312 311 313 314 316 316 310 309 315 320 320 319 318 319 323 326 328 328 329 329
309 309 310 310 310 309 309 309 310 309 310 312 312 314 316 316 316 315 314 320 325 324 323 323 322 326 326 321 321 324 323 322 321 320 319 319 319 318 315 313 313 315 317 316 314 314 315 315 315 317 320 321 321 320 326 328 327 326 322 322 322 320 317 318 323 320 311 310 313 312 312 312 313 314 312 312 314 318 321 318 315 316 320 324 326 327 328 328
309 309 309 310 310 310 309 309 310 310 309 311 312 314 317 316 316 315 313 318 326 326 325 324 324 328 327 322 320 322 322 321 321 320 318 317 316 315 314 313 314 315 317 319 317 315 316 316 317 319 319 319 319 319 324 327 326 325 321 320 321 320 318 315 319 320 311 310 312 311 312 311 311 312 312 314 315 317 318 314 313 315 319 322 322 323 325 326
307 307 308 309 310 310 310 309 308 309 309 311 313 314 317 317 316 315 314 318 326 326 326 325 324 326 324 321 320 320 321 321 320 319 317 317 314 313 314 314 316 317 320 321 318 316 316 318 318 319 318 318 318 318 322 324 325 325 323 321 320 321 320 315 315 316 310 310 314 313 313 311 311 312 311 313 314 315 316 314 313 312 314 317 319 320 321 323
306 306 307 308 309 310 310 308 307 308 309 312 313 314 317 318 316 315 315 319 324 325 325 324 323 325 323 320 319 320 321 321 320 317 316 316 314 315 315 315 318 320 320 319 317 315 316 321 321 319 319 317 317 318 319 322 324 325 324 323 321 319 318 314 312 312 310 311 314 314 314 312 311 311 311 312 313 313 314 314 313 311 311 311 313 316 317 318
306 306 306 307 308 309 309 308 307 306 307 311 313 313 315 316 315 315 317 320 323 323 323 323 323 323 321 319 319 320 321 322 321 318 315 314 314 316 316 315 318 319 318 318 319 318 319 322 322 319 319 318 318 318 317 320 322 324 324 322 322 319 317 315 313 313 312 310 313 314 312 311 311 311 311 311 311 312 312 312 313 312 311 310 310 312 314 314
307 306 305 305 306 308 309 308 307 306 307 310 313 312 314 315 314 315 317 320 323 322 321 322 323 322 320 319 319 320 322 322 322 319 316 315 316 317 315 315 317 317 316 319 321 321 321 321 320 318 318 318 318 317 316 318 319 321 322 322 322 319 318 320 315 313 313 310 312 313 311 311 311 311 311 310 311 311 311 311 312 312 312 312 310 309 310 312
306 306 305 305 304 306 308 308 308 308 307 309 312 312 313 315 315 314 316 318 320 322 321 321 322 321 320 320 320 321 322 321 322 320 316 316 317 316 315 315 316 317 317 318 320 321 321 320 318 317 318 318 318 317 316 318 318 318 319 321 321 317 317 319 313 312 314 312 311 311 312 313 313 313 312 311 312 311 310 311 310 311 311 311 311 310 309 310
306 306 305 305 305 305 306 308 308 308 308 309 310 310 311 313 315 315 316 317 318 319 321 321 322 321 320 320 320 321 322 321 320 319 316 317 317 315 315 315 315 317 317 318 319 320 319 317 317 317 317 318 318 317 318 318 319 319 318 318 318 317 317 318 316 316 318 318 315 312 316 319 317 316 314 313 314 312 311 310 309 309 310 309 310 310 310 310
305 305 305 304 305 305 305 307 307 307 308 309 309 309 310 312 314 315 315 316 318 319 322 322 323 323 321 322 321 321 324 323 319 317 316 317 316 315 315 314 314 317 317 316 317 319 316 314 316 317 317 318 318 317 318 319 320 321 318 316 317 318 318 319 318 318 320 322 317 312 316 321 320 317 315 315 315 313 312 312 311 309 309 309 309 309 309 309
304 304 305 305 304 305 305 306 307 308 309 309 307 308 310 312 313 315 316 317 318 319 321 322 322 323 322 322 321 322 326 323 318 317 317 317 316 315 316 314 313 315 315 316 318 317 314 314 316 318 317 318 318 318 317 317 321 322 317 316 318 319 319 320 319 319 320 319 317 313 313 315 317 316 317 317 314 313 312 311 312 310 309 309 308 309 309 309
304 304 304 305 304 304 304 305 307 308 308 309 308 308 310 313 314 314 316 319 319 318 320 321 320 321 322 322 321 323 324 321 320 319 316 316 316 314 316 314 313 315 313 316 320 316 312 315 317 317 318 318 318 319 318 317 320 319 315 317 318 317 319 320 319 319 318 315 316 317 313 314 317 317 318 318 314 313 312 311 312 311 310 310 309 309 309 308
303 304 304 304 304 303 303 305 306 307 307 308 309 310 312 313 314 315 317 321 320 318 320 321 320 320 322 323 323 322 321 321 322 319 315 316 314 313 316 314 312 315 314 315 319 314 311 315 315 315 318 318 318 319 317 317 317 316 315 317 317 317 319 319 319 319 316 315 317 319 315 316 320 319 316 315 313 313 313 312 312 311 310 309 309 309 309 309
303 304 304 304 304 303 303 305 305 305 306 308 310 311 313 313 315 318 319 320 320 318 319 320 321 323 324 325 324 323 321 321 319 317 316 316 314 314 315 313 312 314 313 314 317 313 311 312 314 315 316 315 316 315 314 317 317 314 316 317 316 319 319 318 319 318 316 317 318 320 317 314 318 320 314 313 315 314 313 313 313 312 311 310 309 309 309 309
303 303 303 304 304 303 304 305 304 304 306 308 310 311 313 314 315 319 320 319 319 319 319 321 323 325 325 326 326 324 321 319 317 317 318 316 316 317 314 313 314 314 314 315 315 313 311 313 314 314 314 314 314 311 311 315 316 315 316 317 316 318 318 318 317 316 318 320 317 318 318 314 316 318 313 312 316 315 313 313 314 315 315 313 311 311 309 309
302 303 303 303 303 303 304 304 304 305 306 308 310 312 314 314 315 319 319 317 319 319 318 321 325 326 325 326 325 324 321 319 317 318 318 317 317 318 317 315 314 316 316 315 315 315 313 314 314 312 311 312 314 312 311 313 315 316 316 317 318 319 320 321 318 317 320 319 314 315 316 315 316 317 314 313 314 314 312 312 314 315 315 315 313 314 314 313
302 302 302 302 303 303 303 303 304 305 307 309 310 311 313 313 315 318 319 317 318 319 318 321 325 325 325 326 325 323 321 320 319 318 317 317 316 317 318 315 314 318 319 315 315 317 317 314 312 311 311 311 313 313 312 313 314 314 315 316 319 320 321 321 320 320 323 321 315 313 313 316 317 317 315 313 313 315 313 312 312 313 312 311 312 315 316 316
301 302 302 302 302 302 302 303 304 305 308 310 310 311 312 312 314 317 319 317 315 317 319 321 324 326 326 326 324 322 322 321 319 319 318 317 317 317 317 315 314 318 318 315 315 317 319 318 313 312 313 312 314 313 313 314 313 313 315 317 318 320 322 323 322 321 322 320 313 310 314 320 322 320 315 312 314 314 313 312 312 311 310 308 309 310 313 315
301 301 301 301 302 301 301 302 304 305 308 310 310 311 312 312 314 317 318 316 312 315 320 322 324 327 326 325 323 322 322 321 319 319 318 317 317 317 316 315 315 315 315 316 316 315 319 319 313 312 312 312 313 313 312 314 313 314 316 316 317 321 324 324 322 320 321 319 313 312 318 322 322 317 312 312 315 315 314 313 311 312 310 308 310 310 311 313
301 300 300 301 301 301 301 303 304 305 307 310 310 311 312 312 314 316 316 315 312 313 319 324 325 326 326 325 323 322 321 320 320 320 319 318 317 317 316 315 314 313 315 318 317 316 319 317 313 312 312 311 313 314 312 314 315 314 315 316 316 318 322 321 317 314 316 319 317 315 317 319 319 316 313 314 315 314 315 313 313 314 311 309 313 313 311 313
300 300 300 301 301 301 302 303 304 306 307 309 311 311 312 312 315 317 316 316 314 313 319 325 326 325 325 324 323 322 320 320 320 321 320 319 318 317 316 315 314 313 313 316 317 317 318 316 312 312 312 311 313 314 311 314 315 314 314 316 314 316 320 321 318 313 313 317 320 317 316 317 318 318 317 315 314 314 314 313 314 314 312 312 315 315 313 313
300 300 300 301 301 301 303 303 305 306 307 309 311 311 311 311 315 316 315 316 316 315 318 322 324 324 324 324 322 320 320 322 321 321 321 320 319 317 315 315 314 312 313 318 319 317 318 317 313 313 314 312 312 313 312 312 312 313 315 316 316 318 318 319 320 318 315 316 319 320 316 314 315 317 316 313 315 316 313 312 312 312 313 315 317 316 313 312
300 300 300 301 300 302 304 305 305 306 308 309 311 311 310 311 315 315 315 316 317 317 318 319 321 323 322 322 321 319 321 322 321 321 321 321 320 317 314 315 314 312 313 318 318 316 319 322 316 313 314 314 312 312 313 313 311 312 314 314 314 316 317 319 319 319 319 317 318 322 319 314 314 315 314 314 316 316 314 313 313 314 316 316 317 318 315 314
299 300 301 301 301 303 305 306 306 307 308 310 311 310 309 311 314 315 315 316 316 318 319 318 319 320 321 321 320 319 322 322 321 322 322 321 320 317 314 314 314 312 312 316 318 315 316 320 318 314 313 313 313 312 313 313 312 311 313 313 312 312 315 320 317 316 320 319 319 320 317 319 321 316 313 313 313 314 315 313 313 315 318 317 317 318 318 317
298 299 302 302 303 305 307 307 308 308 309 310 311 310 309 311 314 314 315 316 316 318 319 318 318 319 320 321 320 320 323 321 320 322 322 320 319 317 316 314 313 312 311 314 316 316 315 316 317 315 313 313 314 313 313 314 313 312 312 313 313 313 315 318 316 315 316 318 322 319 314 320 324 315 310 313 312 312 314 313 313 315 318 319 318 318 318 317
297 300 302 303 306 308 308 309 310 310 310 310 310 309 309 312 314 313 314 316 317 317 317 318 318 318 319 321 321 321 322 322 321 321 321 320 319 318 316 313 313 311 312 314 314 315 318 318 316 316 315 315 314 312 311 315 314 313 313 314 314 313 314 316 319 319 315 314 319 318 314 317 318 311 310 313 313 312 313 314 313 314 319 322 321 321 320 319
298 301 304 306 309 310 310 310 311 311 310 310 309 309 310 313 314 313 314 316 316 317 317 318 318 317 318 319 320 322 322 321 321 321 321 319 318 317 316 313 312 311 312 314 313 314 317 317 315 315 316 316 315 312 310 313 315 313 313 315 314 313 313 318 323 322 318 316 316 315 314 313 313 313 313 314 315 314 314 314 313 315 321 324 325 330 331 328
299 302 308 311 311 311 311 312 312 311 311 310 309 310 311 313 314 314 314 315 316 317 317 317 317 318 318 318 319 322 322 322 322 321 320 320 317 315 315 313 312 312 312 313 313 316 318 316 315 316 317 318 318 316 314 314 314 314 315 315 314 315 314 316 318 315 315 319 319 317 315 312 315 320 315 313 315 315 312 311 313 316 319 322 327 332 332 331
301 306 312 313 312 312 312 312 312 311 311 311 310 310 312 314 314 314 314 314 315 317 318 317 317 318 318 317 319 321 321 322 323 320 318 317 314 312 313 314 312 311 313 316 316 319 320 316 314 317 318 319 319 317 317 316 313 316 319 316 314 315 313 313 317 315 314 318 318 316 315 313 316 318 313 312 314 314 313 311 312 316 318 320 322 325 330 334
304 312 315 314 313 313 312 312 311 311 311 311 310 311 313 313 313 313 314 315 315 316 317 318 318 317 316 317 319 321 320 319 320 319 316 314 312 310 312 314 312 312 317 320 318 319 321 316 314 317 317 317 319 318 318 318 315 315 317 314 312 312 312 315 319 316 314 317 316 315 315 313 313 313 313 316 316 316 316 313 311 313 316 318 319 323 330 333
305 313 315 314 315 314 313 313 311 310 310 310 310 311 313 313 313 314 314 315 315 316 316 317 317 316 315 316 318 319 318 316 317 317 314 313 313 312 313 313 313 316 320 319 315 318 321 317 316 318 317 318 323 320 317 317 315 315 315 313 312 312 313 316 317 314 315 318 315 314 316 314 315 317 318 319 318 318 317 313 310 310 313 318 319 322 327 328
305 312 314 314 315 314 313 312 311 310 310 310 310 312 313 313 314 314 315 315 315 315 317 317 317 316 315 317 319 318 315 315 316 315 312 313 313 312 313 313 313 317 318 315 313 315 318 316 316 318 316 320 324 321 318 318 316 315 315 314 313 313 314 315 315 314 315 316 315 318 319 315 315 317 319 320 319 316 315 314 313 310 311 314 317 320 324 324
306 311 313 313 313 313 312 311 311 311 310 310 311 312 312 313 313 314 315 314 314 316 317 317 317 316 315 317 319 317 315 316 316 314 311 312 313 313 314 313 314 316 314 313 314 314 316 317 317 316 315 317 318 318 317 318 317 315 315 314 314 314 314 314 313 314 314 314 315 318 318 316 316 316 318 319 316 312 312 314 315 313 313 316 321 323 325 325
307 311 313 313 313 312 311 310 310 311 311 310 311 312 312 312 313 314 314 314 314 316 316 316 317 316 315 316 318 317 316 317 317 314 311 313 313 313 314 314 314 314 313 313 313 313 316 319 316 315 316 314 313 314 314 315 317 316 315 314 314 314 314 313 313 313 313 313 314 314 315 315 317 319 319 317 313 311 312 314 314 314 316 320 325 325 325 327
304 307 309 312 313 312 311 310 309 310 311 311 310 312 313 312 313 314 315 314 314 315 316 316 317 316 315 316 317 316 315 315 316 313 311 313 313 314 315 314 313 313 313 314 314 313 315 317 314 315 318 314 312 314 314 314 315 315 315 315 314 313 314 313 313 313 313 313 313 313 314 313 315 319 318 315 313 312 313 315 315 316 319 324 328 326 325 329
302 307 310 312 312 311 310 310 310 310 311 311 310 311 312 313 313 314 315 315 314 314 315 316 316 316 316 316 317 317 316 315 315 314 312 313 315 317 317 314 312 313 313 314 315 315 316 316 315 316 318 314 310 313 316 315 315 315 314 314 313 313 313 312 313 314 313 313 313 313 314 314 314 315 314 314 315 316 316 317 317 317 319 321 324 323 322 324
Wind_Speed
18 18 16 18 23 24 23 25 31 35 35 33 33 34 34 34 34 34 35 34 32 32 31 30 29 28 28 26 24 23 23 17 13 10 8 10 11 10 15 15 9 8 8 11 13 11 7 6 5 6 6 5 4 3 6 4 1 1 2 3 2 4 4 5 7 6 4 2 3 4 4 7 5 2 2 1 3 2 1 2 3 3 3 3 4 1 18 28
16 17 17 17 17 20 23 23 25 31 35 35 33 34 35 34 35 34 34 34 33 33 33 31 30 29 27 26 23 21 22 21 16 15 16 16 13 11 13 15 12 10 10 12 15 15 10 5 7 10 6 3 2 3 4 4 2 1 2 2 3 5 4 5 7 5 3 0 1 2 2 5 5 3 4 3 2 2 3 4 4 4 5 3 1 12 24 27
14 15 16 18 17 16 19 23 24 25 30 36 36 33 35 35 35 35 33 33 33 32 33 32 31 29 27 24 22 21 18 14 11 16 24 21 16 15 15 14 14 16 16 15 15 14 14 11 12 11 4 2 1 2 2 3 2 1 3 1 5 5 4 4 6 6 4 1 0 2 2 3 4 2 3 4 2 3 6 7 3 6 8 2 5 16 23 25
12 13 14 15 16 17 16 18 24 24 23 31 38 35 35 37 36 36 35 34 32 32 32 31 31 28 27 24 21 22 14 5 6 16 26 25 20 19 19 20 19 19 19 16 14 14 19 18 13 8 4 2 1 2 1 1 1 0 2 3 4 2 2 4 6 6 4 2 2 2 2 2 4 2 3 6 4 3 8 10 11 12 10 8 8 14 20 22
11 13 12 12 13 16 16 16 19 23 23 24 34 39 36 37 38 37 37 36 33 33 32 30 29 27 25 23 21 22 13 1 5 16 25 26 24 21 21 24 23 20 19 17 15 17 18 15 9 5 3 2 1 2 1 2 2 0 2 4 4 3 2 4 2 4 1 1 2 3 2 3 3 3 4 9 7 6 6 9 11 9 9 12 12 15 18 18
12 12 12 12 12 14 15 16 16 18 23 22 25 36 40 38 38 39 38 38 36 34 33 30 28 26 23 22 21 21 12 3 2 7 21 28 26 23 21 22 23 20 19 19 18 17 13 9 6 4 2 2 4 4 2 1 1 2 3 3 3 3 3 3 2 2 4 4 3 3 3 2 3 3 4 9 11 6 1 6 8 7 9 13 15 17 15 15
12 13 13 12 12 14 14 15 16 15 18 21 21 28 40 41 39 40 40 40 39 36 35 32 29 26 23 21 19 15 8 7 2 3 15 30 28 25 22 20 22 22 20 21 19 12 9 8 5 5 5 3 4 5 3 1 1 2 4 4 3 3 4 3 3 2 4 4 4 3 1 2 6 5 1 6 14 6 3 4 5 10 13 14 14 15 16 18
13 13 13 12 12 13 14 14 15 15 15 17 20 22 33 42 42 40 41 41 39 38 36 33 32 28 27 23 14 8 6 11 10 1 11 27 27 26 24 21 23 23 23 24 22 14 9 10 8 5 5 2 4 5 4 3 2 3 4 3 3 3 4 3 3 3 4 5 3 2 3 5 8 4 2 8 13 5 3 3 6 9 12 12 12 13 14 17
13 13 13 13 13 12 13 14 13 14 15 15 18 21 24 37 44 42 41 42 40 39 36 35 34 30 29 21 8 7 10 17 17 4 12 27 27 28 26 24 25 23 23 20 21 20 10 9 8 5 5 3 4 6 4 4 2 4 4 3 4 3 4 3 3 2 2 4 2 5 7 7 5 2 3 10 10 4 4 5 6 8 10 10 11 13 14 14
12 13 13 13 14 13 12 13 14 14 14 14 14 19 22 28 43 45 42 43 41 39 38 36 34 32 28 17 7 8 9 18 21 8 14 29 28 27 26 25 27 24 21 14 13 17 8 7 10 5 4 3 3 4 2 5 3 3 4 4 5 4 4 1 2 3 1 3 4 7 8 5 2 1 4 7 3 5 7 6 5 7 9 11 10 11 14 15
12 12 13 13 14 14 12 12 14 14 14 14 13 17 21 24 37 47 45 44 44 41 40 37 34 33 26 15 9 8 7 17 22 13 17 29 30 28 27 27 27 24 21 15 13 15 6 9 14 5 2 3 4 2 1 4 3 1 3 4 5 4 5 3 4 4 1 2 6 8 5 2 1 1 7 6 1 5 7 7 6 8 8 9 10 10 11 14
12 12 12 13 13 13 13 13 13 13 14 14 14 15 19 23 29 44 47 44 45 43 41 38 35 34 23 11 10 10 9 16 22 18 20 28 30 29 27 26 25 23 23 17 15 16 11 14 15 5 2 6 5 1 2 4 3 1 1 2 5 5 4 6 4 3 3 2 6 5 4 4 3 5 10 6 3 5 6 7 7 8 8 7 8 8 8 12
12 13 12 12 13 13 13 12 12 14 14 14 14 14 16 21 24 37 47 45 45 44 42 40 36 33 20 7 11 15 12 15 21 20 23 28 27 25 24 25 23 21 21 20 18 16 14 17 14 4 1 5 4 2 2 3 2 0 2 0 3 5 4 5 3 3 3 3 5 5 5 6 4 9 11 3 5 6 6 7 7 7 7 6 7 6 7 11
12 13 13 12 12 12 12 12 12 14 14 14 13 13 14 19 22 29 44 46 44 44 41 40 38 31 17 4 8 19 17 15 23 24 26 28 24 20 22 24 20 16 16 18 20 17 14 16 12 5 2 2 3 3 4 3 2 1 1 0 0 2 4 4 2 5 5 3 4 5 6 7 5 10 9 4 5 8 7 8 7 7 7 6 6 7 8 9
13 13 13 13 12 12 12 13 13 13 14 13 13 13 14 16 19 21 37 47 43 44 42 39 38 23 8 3 6 20 21 17 24 27 28 29 25 18 18 22 18 14 14 15 19 18 16 15 9 5 1 1 4 4 3 2 2 1 2 1 1 4 4 6 1 6 6 2 2 5 5 6 7 10 5 4 6 8 9 9 7 8 8 8 7 8 8 8
14 13 13 13 12 11 12 13 14 15 14 13 13 13 14 15 17 19 28 45 43 43 41 31 34 22 4 4 10 18 19 16 24 26 26 30 28 21 20 20 15 13 14 13 16 18 17 12 4 3 3 2 4 4 4 2 1 1 2 2 1 3 2 4 2 3 3 1 1 5 5 3 5 7 1 2 6 7 8 8 8 9 9 9 8 7 8 7
15 14 14 13 13 12 11 12 13 15 14 13 13 14 13 14 16 20 23 38 45 45 42 29 32 23 3 6 14 16 15 15 25 27 24 26 26 26 24 15 11 14 13 11 14 14 10 5 1 2 3 2 4 4 3 3 2 1 2 3 3 4 4 2 2 2 1 1 3 5 6 5 6 6 1 3 6 6 7 9 8 8 8 7 7 7 8 9
15 15 14 12 13 12 12 11 11 13 14 13 13 14 13 12 13 16 21 29 40 39 33 23 24 15 4 11 14 15 20 22 28 29 25 23 25 29 23 12 11 15 12 6 8 7 2 1 1 2 2 3 4 5 6 6 7 7 6 5 4 5 5 3 2 2 1 2 4 5 6 8 9 10 7 4 7 7 9 9 6 6 7 7 6 8 9 9
15 15 14 12 12 11 11 11 10 11 12 13 13 12 11 8 8 10 16 20 23 20 14 14 18 8 4 15 14 16 26 29 28 26 24 22 25 23 17 16 14 13 11 5 6 6 3 3 1 4 6 6 8 10 9 5 7 9 7 5 4 5 4 2 3 3 1 1 6 7 7 8 9 11 13 7 6 7 8 7 6 6 7 7 7 8 9 10
13 15 14 12 11 10 10 10 9 10 11 12 12 9 6 3 2 4 9 13 13 16 14 18 23 7 6 11 14 20 24 27 23 18 24 28 27 18 10 12 11 6 9 9 9 7 5 6 7 9 10 11 13 12 7 3 4 6 5 5 5 5 4 2 1 3 2 1 5 7 8 9 9 10 14 10 4 5 7 6 8 8 7 8 9 10 11 12
13 14 14 13 11 11 11 10 9 9 9 12 12 8 3 5 6 3 5 9 17 20 11 17 25 7 9 19 24 27 18 14 14 14 26 31 26 18 7 8 10 5 5 7 9 7 6 9 11 11 9 10 12 8 6 5 5 5 5 5 4 5 3 1 2 4 2 1 4 6 8 10 9 10 13 10 4 7 9 9 10 10 10 9 9 11 11 11
12 13 14 14 12 11 12 12 12 10 10 13 14 9 3 6 9 2 2 6 16 18 5 12 20 4 10 25 33 37 17 7 12 13 24 28 20 15 9 10 10 8 7 7 7 6 7 10 9 9 7 7 8 7 7 6 6 4 4 3 3 3 1 3 4 4 1 3 4 6 7 9 10 10 13 13 9 8 9 10 11 10 10 9 9 11 11 10
13 13 15 15 13 12 11 13 13 11 13 13 13 11 6 10 12 6 2 4 9 13 7 12 16 7 11 17 28 36 18 11 16 15 23 25 15 13 13 13 12 10 11 11 10 9 8 7 9 9 8 10 9 8 8 5 4 4 4 4 3 4 3 3 2 4 3 3 3 5 6 7 8 8 11 14 10 8 8 9 9 9 9 11 11 10 11 11
15 14 15 15 15 12 10 13 12 11 15 16 18 20 13 9 11 9 4 4 7 8 9 13 13 11 11 13 25 29 15 12 15 16 22 19 11 10 12 14 13 11 11 13 13 10 5 4 10 10 8 12 9 7 10 6 4 4 5 6 3 5 4 1 0 4 4 2 2 2 7 8 7 8 10 10 6 8 9 8 9 9 9 10 9 8 10 12
16 16 15 14 14 11 10 11 10 12 15 15 21 27 21 13 11 8 5 4 6 4 5 11 8 9 14 15 21 19 11 10 11 16 23 21 16 11 9 9 9 11 13 13 11 6 3 4 11 11 8 11 9 8 10 8 6 4 4 6 6 8 5 3 2 3 3 3 2 3 6 8 5 8 11 7 5 8 8 8 12 12 10 9 9 9 10 11
17 16 15 15 13 10 8 6 8 14 13 14 23 23 20 20 16 10 6 4 6 3 7 11 7 13 20 14 13 12 10 9 10 18 22 22 20 12 10 8 2 10 15 11 6 3 3 6 11 13 11 12 11 9 9 9 6 3 5 9 8 8 6 3 1 2 1 4 2 3 6 8 3 6 9 6 9 12 10 10 12 10 10 9 9 10 10 10
17 17 15 14 14 10 6 5 8 11 10 13 22 21 19 20 18 12 6 5 7 5 9 8 5 20 23 14 17 14 8 9 11 16 20 20 18 10 12 13 5 7 10 7 4 2 6 9 8 10 10 9 9 7 8 11 7 3 6 12 8 7 6 5 3 2 2 3 4 3 3 6 8 6 6 4 8 11 12 13 12 9 10 10 10 12 11 12
18 18 15 13 15 14 13 12 6 9 14 13 13 18 21 18 16 10 4 6 5 5 8 5 4 18 18 13 20 11 7 17 13 12 17 14 11 6 11 15 13 13 12 10 7 1 7 12 12 12 10 7 8 6 9 12 6 4 8 11 8 7 6 4 4 2 1 2 6 4 2 4 9 5 5 4 8 13 12 13 12 10 10 12 12 13 13 13
20 18 15 14 15 17 23 21 13 17 23 13 7 15 21 19 12 5 4 6 3 3 4 5 5 12 13 12 16 9 8 13 8 9 14 8 2 1 6 12 13 15 13 9 6 2 4 11 14 13 10 8 6 6 11 13 5 4 9 9 5 4 3 3 3 2 1 2 7 4 3 3 8 5 6 6 9 15 11 7 10 10 10 12 12 13 13 12
21 18 18 16 13 17 22 21 28 35 24 12 12 17 21 14 6 5 8 5 3 1 2 6 8 11 16 14 9 11 12 6 6 10 9 6 3 2 4 8 8 11 9 4 3 2 1 5 9 8 6 6 6 5 8 11 7 7 7 6 6 3 4 3 1 2 1 6 4 5 6 1 6 5 7 7 7 8 7 6 9 8 9 11 10 11 11 10
23 20 20 17 16 20 14 14 34 39 22 15 17 19 16 7 4 7 9 3 3 2 2 7 13 14 21 19 8 12 14 8 11 14 7 7 6 3 8 8 4 7 6 4 3 2 4 7 5 2 2 6 8 4 3 7 8 8 6 5 5 2 2 2 1 2 3 6 1 4 7 6 6 7 5 6 5 4 7 8 10 11 10 11 9 9 9 8
24 23 22 20 22 22 18 24 33 25 19 23 18 14 7 5 6 7 4 6 4 6 4 5 13 17 22 22 13 13 14 9 14 18 13 12 9 9 12 10 9 9 7 8 5 2 3 4 3 1 1 7 9 6 3 4 6 6 5 6 6 3 1 1 2 2 5 6 2 3 5 5 12 9 3 8 8 7 8 8 10 12 10 9 8 7 6 5
25 25 23 22 23 25 32 39 30 16 20 28 18 8 6 7 9 7 4 4 2 5 7 5 13 22 24 19 13 14 13 10 16 17 16 15 12 11 8 9 13 9 6 10 7 4 2 2 3 3 1 6 11 9 5 5 7 8 7 8 7 5 4 6 5 2 4 5 3 3 3 4 11 7 6 11 13 12 10 9 11 10 10 9 7 6 6 5
26 25 25 26 26 32 42 40 27 21 25 25 13 7 10 10 7 8 9 4 3 1 11 11 14 21 24 17 13 15 10 10 18 18 15 14 11 11 7 9 14 5 5 10 6 7 9 3 7 10 5 8 12 10 8 7 7 9 7 5 4 3 5 6 5 4 3 2 2 2 2 4 4 3 6 11 12 12 8 7 9 8 9 8 5 6 6 7
26 27 28 27 29 39 46 38 29 30 24 16 8 8 10 9 5 6 8 4 1 3 10 16 16 17 18 12 13 15 6 6 18 17 14 15 13 14 13 12 16 9 9 11 4 6 9 4 4 5 4 11 13 8 8 9 6 5 3 3 4 3 4 3 3 5 4 1 2 3 4 4 3 6 8 6 7 10 9 8 7 8 9 6 6 8 7 8
27 28 27 26 32 43 45 35 33 34 23 9 7 9 7 8 6 3 4 6 4 3 8 16 17 14 13 8 11 14 2 4 18 14 10 15 13 15 16 13 16 13 11 12 5 4 6 3 1 4 5 12 12 8 9 9 7 3 4 7 5 3 5 4 1 1 4 2 3 2 6 6 3 9 12 8 6 7 9 9 8 10 8 6 8 9 8 9
25 24 21 25 39 47 41 34 35 33 19 8 9 10 6 10 8 4 5 8 9 8 8 11 13 13 12 7 8 14 6 5 15 12 8 12 9 13 15 10 14 18 14 10 4 4 5 2 1 3 7 7 3 8 11 6 6 6 7 7 3 0 1 3 1 1 2 4 3 2 8 6 2 6 7 6 9 9 10 9 8 10 7 6 9 9 9 9
24 20 15 28 49 48 36 36 38 27 11 6 12 14 11 12 9 6 7 8 11 11 7 6 8 10 12 10 8 13 11 8 12 11 10 10 7 13 17 11 14 18 12 6 3 3 6 5 3 1 5 2 2 7 9 4 2 4 6 6 5 2 3 2 2 2 2 3 4 3 6 5 7 7 3 4 9 11 12 11 8 8 8 8 9 9 10 8
22 12 10 34 54 45 36 40 34 17 7 7 12 13 12 12 9 8 10 9 11 12 8 6 4 4 8 12 13 14 14 13 13 10 10 9 5 14 21 13 13 18 13 7 5 4 5 6 1 1 2 4 3 5 9 7 2 2 4 6 4 1 3 4 4 3 3 3 3 3 4 4 7 7 5 7 9 9 12 10 7 8 9 9 8 8 8 6
12 5 12 38 48 39 42 40 22 10 8 10 12 12 12 11 8 10 15 14 9 7 9 9 6 3 7 11 13 14 14 15 15 11 10 11 6 11 19 13 12 20 14 6 6 5 3 4 5 1 0 4 5 6 10 11 8 5 5 8 6 2 1 2 2 2 3 4 3 2 5 6 5 4 9 12 10 10 11 10 8 8 9 9 8 7 6 5
6 5 17 35 37 39 41 25 11 9 9 11 15 15 14 12 8 11 16 18 11 2 4 11 9 4 6 10 12 12 11 12 14 9 7 11 8 7 16 16 14 19 13 5 6 7 2 4 7 4 3 5 3 2 4 8 10 9 6 6 8 5 3 2 4 2 3 2 4 2 5 9 5 4 8 10 11 12 13 12 9 7 8 8 7 7 6 6
6 9 20 30 36 47 32 11 8 12 11 12 14 13 13 11 11 13 15 16 14 5 1 7 11 6 4 8 12 13 12 11 13 10 6 12 14 9 15 18 17 19 16 7 5 4 3 5 6 5 4 4 1 1 1 4 8 7 5 6 7 7 6 6 6 3 1 2 2 3 4 8 5 5 8 8 9 11 12 11 9 8 7 7 7 7 6 5
7 14 24 31 49 49 20 7 12 12 10 13 14 15 15 12 11 13 13 13 13 10 5 5 8 7 5 6 8 12 13 10 14 15 8 11 13 7 13 20 19 19 15 8 6 4 3 5 6 5 2 2 3 2 1 2 3 6 8 6 6 7 7 5 4 4 2 4 3 1 6 6 3 3 5 6 6 8 8 5 4 7 7 6 7 7 5 5
8 12 17 30 59 48 14 10 15 10 12 17 18 19 16 11 12 16 16 14 10 9 9 7 7 5 3 4 7 13 14 9 11 14 7 7 8 5 16 24 22 19 14 9 9 7 4 5 7 7 4 3 3 1 1 3 4 6 5 4 5 6 7 4 2 3 2 6 8 5 8 4 2 5 4 6 7 9 9 4 3 6 7 6 7 6 6 6
8 9 8 22 43 34 14 14 17 14 16 20 20 21 16 9 9 15 19 16 10 9 10 9 10 9 5 4 7 12 12 5 8 10 4 4 2 2 16 25 23 19 11 7 9 5 4 6 8 10 10 9 9 8 7 6 5 2 3 8 9 10 12 8 3 3 6 6 10 9 9 2 2 4 4 6 7 8 10 6 3 6 7 6 6 6 6 5
7 9 9 9 16 19 15 14 17 18 19 20 17 18 20 12 6 11 18 17 14 13 10 8 10 11 9 9 9 12 8 2 2 9 7 7 3 1 14 23 20 16 11 13 12 6 4 4 5 9 12 12 10 6 4 9 9 7 7 11 11 10 12 9 5 6 9 5 7 16 13 3 2 2 4 8 7 8 10 7 4 6 8 7 6 7 8 6
7 7 10 9 7 11 12 12 15 16 18 20 15 14 20 18 10 11 15 14 14 15 10 8 11 11 11 14 12 10 6 4 4 9 7 5 4 3 11 17 15 14 14 13 12 6 4 5 8 10 12 7 6 6 8 12 11 10 9 11 11 11 12 10 10 16 9 7 10 17 12 10 8 5 6 8 7 8 9 9 6 5 6 7 6 7 8 8
6 6 10 14 11 11 12 13 16 17 19 21 14 13 21 21 16 15 13 10 13 17 11 7 13 16 16 19 15 9 6 4 6 9 6 4 6 7 9 10 10 14 14 10 9 6 5 7 10 11 11 7 7 8 12 13 10 10 12 13 13 14 16 16 21 25 13 9 14 8 10 14 10 6 8 8 7 9 8 8 7 4 4 5 4 6 8 8
5 3 4 7 9 16 21 21 21 21 22 21 13 14 22 23 20 17 11 8 12 18 15 10 14 18 17 16 13 9 11 9 9 10 9 9 11 10 10 9 8 12 14 10 8 6 5 6 8 10 9 5 4 6 10 11 11 12 14 16 17 17 19 21 27 27 17 18 17 5 7 10 7 7 10 6 5 7 5 6 6 4 4 3 3 6 8 8
4 2 2 1 4 14 20 21 22 20 19 19 14 12 18 22 21 16 12 13 14 16 17 17 18 21 21 19 15 12 15 15 15 17 16 16 15 12 12 12 11 13 14 11 8 5 5 6 6 7 6 2 2 2 4 7 11 13 13 15 17 17 19 23 28 22 16 21 20 4 3 8 5 6 7 3 3 4 5 7 6 5 5 4 5 8 8 8
5 3 3 6 8 14 16 15 18 18 15 16 15 12 16 21 22 16 12 14 16 17 19 21 21 19 19 21 21 19 19 17 18 21 22 21 18 12 8 10 14 18 15 11 7 6 6 5 4 7 6 3 1 4 5 5 7 7 8 12 16 18 21 23 20 13 13 19 15 8 11 9 5 5 5 3 3 5 7 7 6 6 6 6 7 8 8 9
3 3 2 5 9 15 17 14 16 16 13 14 15 14 15 18 20 18 12 10 15 19 21 24 25 19 16 22 26 27 26 23 17 14 12 10 9 7 6 8 15 18 15 9 4 4 6 5 4 7 7 2 2 6 8 7 6 3 9 17 22 23 22 16 10 10 16 15 11 11 11 6 7 8 8 6 5 7 8 8 7 8 8 7 8 8 8 10
Wind_Direction
238 238 240 246 246 242 234 223 215 212 209 208 207 205 203 202 200 200 199 197 197 196 196 196 197 197 196 198 198 201 202 205 228 231 226 216 212 208 198 199 184 163 169 174 169 150 109 70 81 107 102 49 15 341 344 338 46 22 105 118 206 188 200 188 183 196 176 283 258 227 210 173 191 198 170 62 67 74 110 282 295 295 286 249 288 141 159 165
238 235 238 246 250 249 246 239 222 212 210 207 206 206 204 201 201 201 200 198 199 200 200 201 203 203 203 205 204 208 212 217 232 240 236 229 230 228 205 205 207 201 190 174 165 146 116 77 93 96 82 47 2 348 353 334 19 83 117 126 226 199 211 197 182 197 176 90 260 229 192 187 204 162 154 192 219 120 156 258 322 300 273 305 110 148 156 162
237 235 235 240 248 252 251 249 238 221 211 207 206 205 204 202 201 200 199 197 197 199 200 201 202 202 203 203 203 206 202 202 222 238 234 231 231 227 214 204 193 194 195 184 177 156 133 122 112 101 70 62 48 355 23 334 338 121 130 179 244 216 240 227 189 204 211 151 24 267 174 198 241 157 157 184 174 147 194 224 218 237 237 217 147 152 157 163
235 237 236 236 242 247 252 254 248 237 220 208 205 204 205 202 200 200 198 195 194 196 196 197 198 198 199 194 190 188 174 160 223 232 228 224 221 215 211 204 188 184 185 180 178 156 131 115 101 90 85 90 19 28 82 285 347 36 151 195 234 196 255 245 196 206 235 216 189 218 139 238 238 160 174 155 142 232 234 222 207 211 198 171 166 160 162 166
233 238 239 237 236 242 248 251 251 245 237 221 206 204 205 202 201 200 197 194 192 191 189 188 188 188 185 181 177 168 147 90 231 224 222 215 210 201 197 198 191 186 183 175 158 139 127 112 93 70 76 108 118 97 199 229 99 289 234 210 211 151 235 262 196 183 180 121 132 142 174 224 183 158 184 164 185 227 234 230 214 207 180 166 166 163 166 170
234 239 241 239 238 240 242 245 251 248 244 238 216 205 204 203 201 200 198 195 192 190 188 185 184 183 181 179 177 165 158 205 170 209 211 202 198 189 185 189 187 186 185 172 150 133 124 112 109 117 104 109 173 165 145 243 98 211 246 253 226 173 222 296 25 144 129 110 150 177 213 192 158 237 198 176 213 214 267 256 206 178 167 162 160 161 168 175
237 238 242 242 240 240 239 242 247 251 249 245 238 216 204 203 202 200 199 197 195 195 193 192 191 191 190 182 178 176 188 221 176 75 194 193 189 183 180 180 179 183 181 165 151 143 133 136 146 141 137 119 183 178 116 75 24 197 233 284 264 198 219 293 359 220 162 169 220 206 197 186 194 234 140 197 229 221 0 310 163 150 150 156 163 168 177 181
240 239 241 241 243 242 239 241 242 249 252 245 248 236 209 201 202 200 199 198 197 197 197 196 197 195 189 176 169 194 216 224 233 352 175 184 181 177 175 169 171 175 171 163 156 154 141 149 160 145 161 168 162 164 131 111 52 213 230 286 281 241 236 276 311 266 214 220 242 163 205 227 201 185 133 232 238 234 27 58 115 136 143 160 177 179 184 185
243 243 244 243 244 246 242 242 240 242 251 249 248 248 226 204 200 200 199 198 196 197 197 194 192 189 183 173 162 211 215 219 229 250 176 181 177 177 175 165 166 163 158 159 157 157 151 160 170 158 164 157 148 152 155 166 170 203 213 265 264 277 278 286 298 279 237 239 166 165 235 255 225 183 240 250 241 192 107 103 125 141 152 174 185 186 188 189
243 243 245 246 246 249 249 246 243 241 248 254 250 248 244 217 202 199 198 196 195 195 192 191 187 182 181 176 181 214 218 214 215 220 184 182 179 177 178 172 168 162 151 145 155 163 158 162 164 151 133 112 156 147 164 188 158 174 207 249 239 263 285 221 240 263 262 248 180 192 247 272 272 225 242 265 247 152 125 122 152 159 173 186 188 193 193 194
242 244 244 245 247 249 250 250 246 244 246 252 255 248 247 236 208 198 198 196 195 194 192 192 187 182 182 180 197 214 205 201 202 203 187 184 183 180 180 177 171 165 155 148 169 179 172 158 150 134 143 132 144 127 250 180 126 204 228 250 253 274 274 221 248 264 203 234 191 192 249 285 49 194 240 259 186 163 154 154 175 180 193 195 193 199 197 202
241 246 246 244 246 249 248 250 247 244 248 250 256 254 247 248 221 199 197 196 194 195 194 193 189 184 183 190 210 213 198 193 195 194 186 184 184 182 181 179 177 171 163 158 173 180 167 159 150 122 189 146 134 162 217 159 125 278 252 248 285 329 288 227 221 225 184 212 182 172 281 273 184 214 240 240 144 154 161 172 188 194 202 201 201 204 203 209
240 245 249 246 244 249 249 249 250 247 250 250 254 262 249 250 239 205 196 197 195 195 194 193 190 184 184 207 205 205 203 186 190 187 179 181 180 177 177 178 181 180 177 172 173 181 171 165 161 128 126 136 137 174 129 97 99 338 42 74 300 337 295 230 170 164 191 206 171 163 269 261 221 235 238 205 136 139 157 198 202 202 210 205 207 210 212 213
240 245 248 250 247 247 250 249 253 252 252 252 252 261 251 248 253 218 197 196 195 193 194 191 187 184 192 212 181 199 202 181 184 179 171 176 168 163 170 172 173 176 178 170 167 177 172 162 153 117 76 105 132 132 84 34 27 105 104 58 243 231 272 287 175 164 189 213 148 151 248 261 264 258 241 189 164 159 184 218 207 206 213 208 210 212 219 217
240 246 247 251 251 244 246 246 250 255 254 255 252 258 258 250 256 236 203 195 194 192 189 186 184 181 196 224 181 189 185 174 179 176 175 174 161 156 170 172 172 170 166 159 158 162 158 152 136 118 119 87 125 112 85 41 28 79 198 215 208 209 267 319 315 177 200 249 117 161 241 268 265 262 242 181 183 178 203 221 211 215 213 209 213 212 220 223
243 246 246 250 251 245 244 243 246 252 254 257 257 257 262 256 254 258 219 196 192 189 180 179 183 183 217 202 169 172 171 173 178 177 178 177 169 161 157 157 156 157 156 150 153 155 153 148 119 130 127 101 141 120 100 114 43 1 218 212 216 201 258 316 319 227 224 326 191 217 248 270 263 265 263 165 194 189 216 226 215 219 216 210 213 212 220 225
247 247 248 251 251 250 245 242 244 246 251 256 264 261 259 265 251 264 248 202 188 183 178 178 179 183 246 149 155 170 170 169 174 170 169 176 173 157 145 136 128 136 136 132 147 152 153 150 126 146 109 115 161 134 133 181 188 200 187 212 223 185 194 229 280 283 280 311 245 236 245 248 275 284 259 184 193 191 229 239 228 227 227 220 216 218 222 222
250 250 249 251 250 254 247 246 245 238 249 254 263 265 254 272 261 267 271 214 182 175 182 180 172 179 226 179 170 171 164 162 167 164 162 171 168 154 145 137 129 130 123 118 148 150 149 134 123 151 148 168 160 160 191 202 198 196 183 194 220 206 203 204 248 275 94 304 268 244 250 252 276 283 263 207 168 185 227 238 245 247 240 234 226 226 227 225
251 252 251 253 248 253 248 246 248 235 243 251 261 267 248 269 280 271 268 226 182 172 184 173 175 190 195 184 172 154 160 161 161 159 156 157 156 147 133 133 135 135 138 148 167 168 150 107 142 189 188 185 180 190 202 205 198 191 181 187 200 210 219 196 246 279 96 281 262 247 255 250 251 262 261 241 163 188 231 241 249 241 231 234 230 232 231 229
253 256 255 253 245 250 246 241 255 243 238 250 256 255 235 222 261 268 243 231 211 194 186 173 180 179 89 142 135 134 151 154 151 153 154 153 147 131 112 131 131 139 159 158 162 169 158 160 195 201 193 189 192 196 183 145 155 154 163 194 201 210 223 158 243 319 43 283 258 245 258 257 245 249 257 254 169 195 237 241 243 235 225 225 225 232 231 232
253 257 257 254 247 249 249 246 256 253 243 249 244 227 217 172 185 239 211 237 237 211 197 178 179 171 117 141 138 138 139 142 147 150 154 155 147 134 138 154 140 155 167 137 138 147 169 194 203 197 190 188 195 191 153 139 146 146 165 190 208 211 226 214 253 310 39 183 261 262 268 266 255 252 260 260 215 218 227 223 235 234 230 229 227 235 236 238
251 253 257 255 254 254 258 261 258 263 262 253 241 229 258 214 202 226 167 251 244 215 208 183 179 149 132 149 149 147 137 129 146 155 160 158 157 155 164 167 156 155 141 119 123 145 192 212 196 177 170 170 186 178 159 160 159 162 152 158 211 190 208 271 258 301 305 188 262 276 270 265 256 249 256 257 241 237 228 216 227 226 226 233 229 233 238 243
252 253 258 256 260 259 260 267 262 266 263 250 239 230 249 243 232 256 242 299 264 214 199 190 175 138 140 152 153 151 147 155 157 169 171 164 169 169 160 166 162 147 151 159 159 166 200 210 170 159 167 172 183 176 162 156 159 175 148 156 211 146 148 239 254 304 274 213 258 287 287 270 259 255 258 255 242 245 245 226 230 224 220 229 228 230 234 237
256 256 260 260 265 264 264 271 264 255 250 245 242 237 238 245 242 245 237 307 287 228 198 191 174 156 155 153 161 161 154 160 159 166 173 167 157 154 158 164 155 149 171 176 169 174 197 175 152 154 175 175 175 174 169 172 184 200 183 178 169 131 145 169 51 310 305 288 234 270 298 271 239 239 254 258 234 238 247 238 244 238 227 234 241 241 233 230
257 256 259 263 267 267 270 272 256 242 243 243 244 244 240 238 239 222 207 268 270 253 201 189 181 167 152 148 168 167 142 153 165 163 171 169 153 147 161 163 154 165 178 171 165 185 209 157 149 150 167 166 167 185 183 182 185 215 211 171 146 141 136 103 49 359 357 300 229 160 272 268 220 218 236 247 239 244 243 230 239 241 233 233 240 242 234 233
257 257 257 259 262 265 270 267 240 233 234 239 242 245 242 236 237 214 189 255 251 224 184 175 171 168 157 153 164 154 149 169 160 155 167 172 162 150 154 162 181 174 171 163 162 201 188 171 160 158 164 164 175 198 191 175 170 220 190 143 135 140 135 145 131 63 175 255 273 157 239 267 272 233 230 233 244 250 248 237 237 239 239 231 229 236 232 233
257 258 255 255 256 251 247 240 226 210 208 239 239 237 235 226 226 215 183 243 241 187 174 175 169 170 166 161 156 151 163 147 129 156 171 174 170 159 159 165 169 164 160 153 180 202 144 153 162 160 160 168 187 200 185 170 168 223 163 136 137 145 152 175 141 141 223 286 287 206 209 272 276 247 214 219 253 259 253 249 245 236 240 236 231 235 231 229
261 261 257 255 255 248 245 246 231 208 220 234 232 228 222 203 202 209 196 224 208 130 170 182 142 165 163 157 159 153 136 137 138 173 171 163 167 166 171 173 163 156 161 167 183 177 132 159 171 161 161 186 193 169 156 162 172 216 162 145 155 158 162 163 125 187 251 349 267 232 113 268 268 246 185 193 249 255 247 246 248 240 238 238 234 235 232 231
266 266 261 258 260 258 255 249 240 241 236 228 228 220 202 185 185 198 226 224 152 91 187 156 132 160 151 154 167 154 131 144 147 160 156 141 93 71 169 170 153 147 166 181 166 144 170 176 169 159 172 192 170 137 153 166 177 184 155 134 127 123 100 106 130 180 162 272 250 210 133 247 268 242 185 189 234 247 246 244 249 241 234 237 236 237 237 236
269 267 263 258 254 252 255 250 242 243 239 234 229 196 174 175 190 209 223 215 117 139 224 151 157 159 151 158 170 150 143 138 114 134 151 137 99 358 116 124 119 134 166 197 130 127 138 143 152 163 183 170 131 121 161 168 153 130 132 105 89 72 48 73 155 106 165 264 247 156 150 180 284 244 188 199 218 226 234 243 253 251 241 240 237 236 239 240
270 268 263 254 245 242 242 245 244 240 232 229 212 173 158 179 220 225 217 154 94 200 192 163 162 154 161 167 163 153 147 129 135 142 148 136 136 164 131 121 110 129 158 190 157 67 78 125 160 202 171 132 118 115 152 162 147 129 134 126 115 104 45 46 336 88 214 250 229 164 152 138 249 244 187 231 241 204 218 223 236 244 240 236 235 236 238 241
270 270 265 257 250 242 235 240 243 239 222 211 190 158 166 212 215 233 196 119 152 182 151 172 164 157 169 170 162 160 147 136 155 155 155 154 155 169 163 162 159 148 170 186 170 68 87 156 200 337 137 149 141 131 116 158 160 140 143 145 134 130 108 194 221 182 232 243 202 186 151 171 243 248 226 265 277 256 231 217 226 239 243 241 238 243 245 248
271 272 268 261 254 244 243 245 244 242 214 195 180 171 200 219 214 216 192 149 197 162 140 187 182 164 168 173 167 160 149 152 164 159 159 159 159 168 173 172 164 157 170 169 158 136 133 289 223 168 180 172 161 154 152 174 180 175 169 163 157 150 170 202 200 194 249 243 208 167 147 235 263 266 222 230 247 246 233 227 234 241 249 248 246 255 266 265
273 274 270 265 258 250 249 248 241 232 207 184 179 199 200 221 215 190 202 210 329 175 149 172 190 173 171 174 166 159 154 162 163 160 160 156 159 168 167 181 180 156 114 152 169 170 168 230 203 181 176 170 173 174 161 145 170 189 177 163 182 172 178 194 188 196 222 229 231 186 171 212 231 266 224 215 241 256 254 251 246 249 255 255 266 271 269 266
277 275 272 264 257 253 250 246 237 226 205 177 194 210 200 216 199 186 201 158 36 248 156 164 180 180 179 171 162 167 165 167 164 159 163 164 168 171 167 184 188 163 131 158 178 175 181 230 200 167 148 161 169 174 145 126 156 204 157 155 233 216 154 147 180 183 159 166 230 204 231 225 199 273 271 241 260 276 283 284 264 256 257 252 265 259 248 252
279 275 269 257 250 250 245 237 229 221 205 182 208 209 208 214 194 185 182 145 147 175 162 171 175 180 186 166 166 178 176 159 164 158 168 171 172 176 172 177 181 171 161 162 152 161 185 234 128 99 139 168 167 164 165 158 157 168 178 190 218 203 131 112 209 109 99 211 242 196 250 284 319 285 269 240 242 271 279 279 267 262 253 233 248 251 241 243
276 271 260 249 247 245 238 225 218 213 203 197 210 204 208 214 196 142 168 171 147 148 181 188 175 177 179 162 172 176 150 141 163 158 162 168 175 181 174 174 178 180 179 164 154 180 156 122 326 131 159 185 166 151 175 185 142 149 197 190 135 72 143 108 175 17 92 228 271 227 238 260 272 268 267 233 236 257 263 255 256 267 257 231 244 247 241 239
271 265 255 249 246 242 228 213 208 205 200 205 208 204 204 210 190 141 175 176 143 155 198 207 180 179 174 166 167 167 159 159 168 163 158 166 183 177 173 179 183 186 184 141 122 180 131 102 314 257 152 181 37 137 176 214 122 151 192 176 138 191 221 142 170 199 173 226 285 284 261 251 218 229 280 257 242 251 260 255 250 259 253 242 248 247 245 244
267 265 258 248 245 237 214 202 200 199 206 204 201 202 203 205 188 162 172 166 150 164 190 224 219 184 178 170 155 160 170 170 169 165 164 176 186 178 180 182 175 182 182 145 144 175 129 118 197 279 151 162 133 161 189 197 176 122 159 178 182 172 183 177 174 170 164 196 258 306 309 264 222 203 193 226 241 245 258 261 248 247 248 244 245 246 249 247
256 257 256 247 241 221 198 193 192 198 208 200 197 198 197 195 192 182 173 163 164 173 184 210 223 184 183 170 154 164 171 167 169 170 173 177 162 174 187 185 169 175 172 128 134 160 131 125 150 139 90 165 173 201 194 178 177 181 166 180 193 181 151 172 176 152 139 168 208 289 289 263 242 190 188 208 228 240 252 258 244 240 249 253 257 261 268 267
235 243 255 248 227 195 185 186 189 195 197 199 200 197 194 184 176 193 184 169 171 193 181 194 203 197 181 168 164 170 161 161 173 173 174 176 161 172 189 185 166 164 158 121 145 166 155 130 139 144 170 172 184 230 188 178 187 188 184 187 188 185 158 165 222 214 106 161 186 186 269 269 250 195 192 201 213 227 241 250 249 251 253 258 267 265 264 273
232 229 250 243 201 177 176 184 180 185 194 199 195 190 189 179 171 193 197 180 176 173 131 183 190 202 209 183 175 168 158 162 174 179 187 184 182 186 185 176 161 162 166 151 152 159 103 113 124 131 170 178 170 344 222 212 189 177 211 204 174 185 182 176 216 216 120 225 166 115 271 278 262 201 200 209 214 222 234 242 249 264 269 265 270 272 267 269
238 238 254 229 184 169 172 189 175 181 190 188 188 190 189 184 175 181 190 193 185 170 157 175 177 191 231 212 181 168 163 163 177 183 180 181 191 184 165 163 156 164 172 150 144 160 113 116 114 103 107 334 359 22 355 318 156 179 225 204 163 193 186 159 182 168 183 219 146 107 260 264 294 257 233 250 261 256 255 250 238 255 274 277 275 282 282 274
242 245 256 202 175 169 177 184 173 174 174 178 191 194 190 185 177 174 181 195 197 170 166 173 163 168 227 225 198 182 170 163 185 190 171 167 189 162 156 162 160 170 182 167 164 171 142 138 131 116 101 10 357 349 255 238 201 198 208 167 158 170 144 133 148 122 222 205 152 189 244 232 289 301 287 282 290 284 274 269 243 257 277 291 296 298 278 272
253 230 218 181 171 170 182 180 169 166 170 180 189 188 185 187 182 178 176 182 195 180 169 176 167 156 165 200 207 194 182 172 183 183 148 134 164 149 162 166 168 177 178 140 140 138 122 156 155 146 156 175 190 199 201 191 186 191 159 167 183 172 159 169 131 130 237 201 153 208 243 263 329 308 299 280 282 286 275 257 233 258 273 287 299 299 282 281
260 214 179 172 169 171 179 176 167 166 170 176 182 184 184 181 180 189 181 176 188 185 169 167 162 155 168 181 190 194 196 354 134 161 148 142 141 214 172 167 171 174 148 127 141 130 100 166 182 173 179 182 179 181 140 125 151 184 178 174 178 171 170 163 136 204 224 150 183 233 233 204 247 237 259 265 256 265 271 260 235 248 270 280 274 278 288 292
251 228 175 162 160 166 171 170 168 168 168 171 174 179 181 176 169 193 197 187 183 181 174 166 161 161 173 175 178 188 182 37 98 147 141 135 113 100 161 165 166 161 144 145 162 139 106 182 193 188 198 187 134 126 119 126 159 172 154 161 164 158 164 164 199 223 197 127 229 238 209 205 234 234 243 253 244 249 263 265 252 229 244 265 267 279 291 289
243 244 185 169 158 154 163 169 168 164 166 172 173 170 177 180 176 183 197 195 185 184 180 170 173 174 173 173 174 173 156 105 124 146 134 123 123 116 145 166 171 163 153 160 181 155 133 195 194 185 197 180 132 146 144 139 159 158 152 169 168 168 178 187 216 225 195 183 233 215 165 204 223 219 234 240 234 240 250 264 269 245 230 258 276 280 280 277
241 237 196 185 169 159 158 159 160 163 170 175 176 174 178 183 183 181 179 179 193 194 181 170 181 179 174 176 172 162 167 161 150 162 160 148 147 144 149 166 191 181 164 163 187 179 160 191 186 176 183 160 126 165 156 140 151 164 173 178 172 184 194 200 222 225 209 221 233 161 139 218 217 206 227 233 232 243 262 279 289 300 294 292 274 263 261 260
251 220 150 147 166 158 154 155 159 164 172 176 177 178 179 183 186 182 175 178 189 193 184 179 179 175 174 177 175 182 193 183 167 170 165 154 158 167 168 172 178 177 173 172 183 197 197 186 159 145 158 138 64 126 140 135 154 172 188 186 181 191 199 211 226 223 214 232 237 220 273 260 241 222 235 260 284 281 284 280 286 290 277 265 254 257 258 258
249 255 182 156 156 157 153 155 162 165 173 180 178 172 177 186 186 179 183 191 186 184 185 182 175 174 178 180 182 190 196 192 184 178 170 164 167 170 171 173 166 164 172 178 172 181 195 184 118 123 159 216 43 100 96 87 116 158 193 193 191 198 205 217 225 212 209 229 230 239 261 250 208 226 253 279 279 266 264 270 281 269 244 225 231 244 253 254
244 279 252 153 154 160 157 155 166 171 173 178 175 168 174 184 181 175 182 201 197 190 186 180 175 174 178 185 194 197 194 192 189 176 161 152 141 120 110 142 159 162 163 161 145 148 157 140 117 149 168 245 33 114 112 86 86 192 214 200 200 206 211 221 230 211 214 219 210 222 239 201 159 202 234 242 239 244 248 245 244 245 232 218 225 233 244 249